This demonstration page uses our WeatherBlox Daily Observations layout. Learn more.

38.88101, -77.10428

Hourly Observations for January 27, 2020

Temp ( °F °C ) Dew Point ( °F °C ) Humidity (%) Winds ( mph kmh ) Pressure ( in mb ) Visibility ( mi km ) Precip ( " mm )
12:52 am 00:52 Cloudy 38 3.3 29 -1.7 70 70 SW 6 9 29.85 1011 10 16.0934 0 0
1:52 am 01:52 Cloudy 39 3.9 30 -1.1 70 70 SSW 5 7 29.85 1011 10 16.0934 0 0
2:52 am 02:52 Mostly Cloudy 39 3.9 29 -1.7 67 67 SW 5 7 29.84 1011 10 16.0934 0 0
3:52 am 03:52 Mostly Cloudy 37 2.8 29 -1.7 73 73 S 8 13 29.83 1010 10 16.0934 0 0
4:52 am 04:52 Mostly Cloudy 36 2.2 29 -1.7 76 76 SW 6 9 29.81 1010 10 16.0934 0 0
5:52 am 05:52 Cloudy 36 2.2 29 -1.7 76 76 SSW 8 13 29.81 1010 10 16.0934 0 0
6:52 am 06:52 Mostly Cloudy 36 2.2 29 -1.7 76 76 SSW 7 11 29.82 1010 10 16.0934 0 0
7:52 am 07:52 Mostly Cloudy 38 3.3 29 -1.7 70 70 SW 7 11 29.84 1010 10 16.0934 0 0
8:52 am 08:52 Mostly Cloudy 40 4.4 30 -1.1 68 68 SSW 7 11 29.83 1010 10 16.0934 0 0
9:52 am 09:52 Mostly Cloudy 42 5.6 33 0.6 71 71 S 8 13 29.83 1010 10 16.0934 0 0
10:52 am 10:52 Mostly Cloudy 48 8.9 30 -1.1 50 50 WSW 9 15 29.82 1010 10 16.0934 0 0
11:52 am 11:52 Mostly Cloudy 49 9.4 29 -1.7 46 46 VRB 7 11 29.81 1009 10 16.0934 0 0
12:52 pm 12:52 Mostly Cloudy 49 9.4 29 -1.7 46 46 W 8 13 29.78 1008 10 16.0934 0 0
1:52 pm 13:52 Cloudy 48 8.9 29 -1.7 48 48 NNW 12 19 29.76 1008 10 16.0934 0 0
2:52 pm 14:52 Cloudy 49 9.4 29 -1.7 46 46 WNW 9 15 29.76 1008 10 16.0934 0 0
3:52 pm 15:52 Cloudy 48 8.9 29 -1.7 48 48 NW 13 20 29.77 1008 10 16.0934 0 0
4:52 pm 16:52 Cloudy 47 8.3 29 -1.7 50 50 NW 9 15 29.79 1009 10 16.0934 0 0
5:52 pm 17:52 Cloudy 46 7.8 29 -1.7 51 51 NNW 16 26 29.8 1009 10 16.0934 0 0
6:52 pm 18:52 Cloudy 45 7.2 29 -1.7 54 54 WNW 14 22 29.82 1010 10 16.0934 0 0
7:52 pm 19:52 Mostly Cloudy 44 6.7 29 -1.7 55 55 NW 13 20 29.83 1010 10 16.0934 0 0
8:52 pm 20:52 Partly Cloudy 43 6.1 30 -1.1 60 60 WNW 12 19 29.84 1011 10 16.0934 0 0
9:52 pm 21:52 Cloudy 43 6.1 30 -1.1 60 60 WNW 8 13 29.85 1011 10 16.0934 0 0
10:52 pm 22:52 Cloudy 43 6.1 30 -1.1 60 60 NW 16 26 29.85 1011 10 16.0934 0 0
11:52 pm 23:52 Cloudy 43 6.1 29 -1.7 58 58 NW 14 22 29.86 1011 10 16.0934 0 0

Powered by AerisWeather